Weather in Osytniazhka

Ukraine / Kirovohrad Region     48°54′23″N   31°48′43″E
В апреле 2022 года жителям России запретили посещать сайт meteo.paraplan.net по решению Генеральной прокуратуры. Аудитория сайта уменьшилась в 10 раз. Владельцы сайта не видят смысла в поддержке погодного сервера в таких условиях. Сайт будет закрыт в октябре.
temp.,
°C
wind,
m/s
gust,
m/s
humid.,
%
clouds,
%
prec.,
mm/h
press.,
hPa
HPBL,
m
30 september, fri
fri3000:00+15se3886100 1.4 1010220
03:00+15sse31093100 4.2 1010268
06:00+14sse489639 1.8 1010203
09:00+17ssw368916 1.8 1011267
12:00+22ssw356287 0.0 1013861
15:00+24sw4649100 0.0 10131550
18:00+21w2263100 0.0 101423
21:00+18sw22726 0.0 101515
1 october, sat
sat100:00+16sw228057 0.0 101611
03:00+16s3476100 0.0 101656
06:00+15s48775 0.0 1016141
09:00+17sw4870100 0.0 1017250
12:00+22wsw5750100 0.0 1017798
15:00+23wsw4645100 0.0 10161215
18:00+20wsw2257100 0.0 101511
21:00+18se2361100 0.0 101423
2 october, sun
sun200:00+17se2364100 0.0 101250
03:00+16sw2288100 0.6 101027
06:00+15sse41091100 0.9 1007222
09:00+17ssw4883100 0.9 1006471
12:00+16wnw4688100 0.1 1005288
15:00+16wnw5780100 0.9 1004725
18:00+14nw81386100 0.3 1005621
21:00+12nw81389100 1.9 1006800
3 october, mon
mon300:00+11nw71289100 3.6 1006952
03:00+11wnw61286100 3.8 1007837
06:00+10wnw71189100 0.3 1007736
09:00+10wnw71288100 1.8 1008838
12:00+10wnw71187100 1.6 1009753
15:00+12wnw7975100 2.8 10101111
18:00+11wnw498391 0.3 1012514
21:00+9w499020 0.4 1014312
4 october, tue
tue400:00+10wsw4983100 0.0 1014337
03:00+9wsw5988100 0.1 1014377
06:00+8sw4991100 0.0 1014223
09:00+10sw51085100 0.0 1015507
12:00+11sw7978100 0.4 1015785
15:00+10sw61087100 1.1 1016742
18:00+10sw5109085 2.7 1016437
21:00+10sw498966 3.1 1017259